Andrews, TX

11:05 PM CST on December 09, 2019 (GMT -0600)
Andrews

Weather History for KE11 - October, 2019

Change the Weather History Date:

Thursday, October 24, 2019

  Actual Average (KMAF) Record (KMAF)
Temperature  
Mean Temperature 48 °F -  
Max Temperature 62 °F 72 °F 92 °F (1933)
Min Temperature 33 °F 48 °F 33 °F (1980)
Degree Days  
Heating Degree Days 18    
Moisture  
Dew Point 33 °F    
Average Humidity 61    
Maximum Humidity 78    
Minimum Humidity 42    
Precipitation  
Precipitation 0.00 in - - ()
Sea Level Pressure  
Sea Level Pressure 30.15 in    
Wind  
Wind Speed 12 mph ()    
Max Wind Speed 24 mph    
Max Gust Speed 32 mph    
Visibility 10.0 miles    
Events      
Averages and records for this station are not official NWS values.
T = Trace of Precipitation, MM = Missing Value Source: Averaged Metar Reports

Daily Weather History Graph

Daily Weather History Graph

Search for Another Location

Airport or City:

Astronomy

Oct. 24, 2019 Rise Set
Actual Time 8:00 AM CDT 7:07 PM CDT
Civil Twilight 7:35 AM CDT 7:32 PM CDT
Nautical Twilight 7:06 AM CDT 8:01 PM CDT
Astronomical Twilight 6:38 AM CDT 8:29 PM CDT
Moon 3:53 AM CDT (10/24) 5:18 PM CDT (10/24)
Length of Visible Light 11h 57m
Length of Day
11h 07m
Waning Crescent, 16% of the Moon is Illuminated
Oct 24
Waning Crescent
Oct 27
New
Nov 4
First Quarter
Nov 12
Full
Nov 19
Last Quarter

Hourly Weather History & Observations

Time (CDT) Temp. Windchill Dew Point Humidity Pressure Visibility Wind Dir Wind Speed Gust Speed Precip Events Conditions
12:15 AM 62.6 °F - 49.6 °F 63% 29.95 in 10.0 mi South 4.6 mph - N/A   Clear
12:35 AM 60.1 °F - 48.9 °F 67% 29.95 in 10.0 mi Calm Calm - N/A   Clear
12:55 AM 54.7 °F - 46.6 °F 74% 29.95 in 10.0 mi NE 8.1 mph - N/A   Clear
1:15 AM 55.0 °F - 46.9 °F 74% 29.96 in 10.0 mi NNE 6.9 mph - N/A   Clear
1:35 AM 54.0 °F - 39.6 °F 58% 29.96 in 10.0 mi North 8.1 mph - N/A   Clear
1:55 AM 52.5 °F - 35.6 °F 53% 29.96 in 10.0 mi North 3.5 mph - N/A   Clear
2:15 AM 51.1 °F - 34.2 °F 52% 29.96 in 10.0 mi North 4.6 mph - N/A   Clear
2:35 AM 50.9 °F - 33.8 °F 52% 29.96 in 10.0 mi North 4.6 mph - N/A   Clear
2:55 AM 50.7 °F - 32.9 °F 51% 29.97 in 10.0 mi NNE 4.6 mph - N/A   Clear
3:15 AM 49.6 °F - 32.9 °F 53% 29.96 in 10.0 mi North 4.6 mph - N/A   Clear
3:35 AM 49.3 °F - 33.1 °F 54% 29.96 in 10.0 mi Calm Calm - N/A   Clear
3:55 AM 49.1 °F - 33.3 °F 54% 29.96 in 10.0 mi North 3.5 mph - N/A   Clear
4:15 AM 48.0 °F - 33.1 °F 56% 29.96 in 10.0 mi NE 4.6 mph - N/A   Clear
4:35 AM 48.2 °F - 32.9 °F 55% 29.97 in 10.0 mi NNE 4.6 mph - N/A   Clear
4:55 AM 48.0 °F - 32.9 °F 56% 29.98 in 10.0 mi North 6.9 mph - N/A   Scattered Clouds
5:15 AM 51.8 °F - 32.9 °F 49% 29.98 in 10.0 mi NNE 12.7 mph - N/A   Mostly Cloudy
5:35 AM 54.5 °F - 32.9 °F 44% 29.99 in 10.0 mi NE 10.4 mph - N/A   Overcast
5:55 AM 56.3 °F - 33.3 °F 42% 30.00 in 10.0 mi NNE 12.7 mph 19.6 mph N/A   Overcast
6:15 AM 56.5 °F - 33.4 °F 42% 30.01 in 10.0 mi NNE 12.7 mph 23.0 mph N/A   Overcast
6:35 AM 56.3 °F - 34.0 °F 43% 30.02 in 10.0 mi NNE 17.3 mph 26.5 mph N/A   Overcast
6:55 AM 55.2 °F - 35.1 °F 47% 30.03 in 10.0 mi NNE 16.1 mph 23.0 mph N/A   Overcast
7:15 AM 54.7 °F - 36.0 °F 49% 30.04 in 10.0 mi NNE 18.4 mph 24.2 mph N/A   Overcast
7:35 AM 54.7 °F - 36.1 °F 50% 30.05 in 10.0 mi NNE 18.4 mph 24.2 mph N/A   Overcast
7:55 AM 54.5 °F - 36.1 °F 50% 30.05 in 10.0 mi NE 16.1 mph 25.3 mph N/A   Overcast
8:15 AM 54.3 °F - 36.0 °F 50% 30.05 in 10.0 mi NE 18.4 mph 27.6 mph N/A   Overcast
8:35 AM 53.8 °F - 35.6 °F 50% 30.06 in 10.0 mi ENE 20.7 mph 26.5 mph N/A   Overcast
8:55 AM 53.6 °F - 32.9 °F 45% 30.07 in 10.0 mi NE 18.4 mph 24.2 mph N/A   Overcast
9:15 AM 53.1 °F - 32.0 °F 45% 30.09 in 10.0 mi NE 20.7 mph 27.6 mph N/A   Overcast
9:35 AM 52.2 °F - 32.0 °F 46% 30.12 in 10.0 mi NNE 16.1 mph 27.6 mph N/A   Overcast
9:55 AM 51.6 °F - 32.0 °F 47% 30.14 in 10.0 mi NNE 20.7 mph 25.3 mph N/A   Overcast
10:15 AM 51.3 °F - 32.2 °F 48% 30.15 in 10.0 mi NNE 19.6 mph 31.1 mph N/A   Overcast
10:35 AM 50.9 °F - 32.7 °F 50% 30.15 in 10.0 mi North 18.4 mph 26.5 mph N/A   Overcast
10:55 AM 50.2 °F - 32.9 °F 52% 30.16 in 10.0 mi NNE 20.7 mph 27.6 mph N/A   Overcast
11:15 AM 50.2 °F - 33.1 °F 52% 30.17 in 10.0 mi NNE 21.9 mph 28.8 mph N/A   Overcast
11:35 AM 50.0 °F - 32.9 °F 52% 30.17 in 10.0 mi NNE 21.9 mph 28.8 mph N/A   Overcast
11:55 AM 49.3 °F - 33.3 °F 54% 30.18 in 10.0 mi NNE 23.0 mph 27.6 mph N/A   Overcast
12:15 PM 48.7 °F - 33.4 °F 56% 30.19 in 10.0 mi NNE 18.4 mph 24.2 mph N/A   Overcast
12:35 PM 48.4 °F - 33.8 °F 57% 30.19 in 10.0 mi NNE 17.3 mph 25.3 mph N/A   Overcast
12:55 PM 48.2 °F - 33.4 °F 57% 30.19 in 10.0 mi North 19.6 mph 26.5 mph N/A   Overcast
1:15 PM 46.8 °F - 33.1 °F 59% 30.19 in 10.0 mi NNE 18.4 mph 26.5 mph N/A   Overcast
1:35 PM 46.4 °F 39.5 °F 32.5 °F 59% 30.19 in 10.0 mi North 17.3 mph 26.5 mph N/A   Overcast
1:55 PM 45.5 °F 37.6 °F 32.9 °F 61% 30.20 in 10.0 mi NNE 20.7 mph 26.5 mph N/A   Overcast
2:15 PM 44.6 °F 35.7 °F 32.7 °F 63% 30.20 in 10.0 mi North 24.2 mph 31.1 mph N/A   Overcast
2:35 PM 42.1 °F 32.6 °F 33.8 °F 72% 30.21 in 10.0 mi North 23.0 mph 32.2 mph N/A   Overcast
3:15 PM 40.6 °F 31.7 °F 32.2 °F 72% 30.22 in 10.0 mi North 18.4 mph 28.8 mph N/A   Overcast
3:35 PM 41.5 °F 32.6 °F 31.1 °F 66% 30.23 in 10.0 mi North 19.6 mph 27.6 mph N/A   Overcast
3:55 PM 41.0 °F 31.9 °F 31.1 °F 68% 30.24 in 10.0 mi North 19.6 mph 26.5 mph N/A   Overcast
4:15 PM 40.5 °F 30.9 °F 30.7 °F 68% 30.24 in 10.0 mi North 20.7 mph 26.5 mph N/A   Overcast
4:35 PM 40.5 °F 30.9 °F 30.6 °F 68% 30.25 in 10.0 mi North 20.7 mph 27.6 mph N/A   Overcast
4:55 PM 39.2 °F 29.3 °F 29.8 °F 69% 30.26 in 10.0 mi North 20.7 mph 28.8 mph N/A   Overcast
5:15 PM 39.2 °F 30.2 °F 29.7 °F 69% 30.27 in 10.0 mi North 17.3 mph 29.9 mph N/A   Overcast
5:35 PM 38.3 °F 27.3 °F 28.9 °F 69% 30.28 in 10.0 mi North 24.2 mph 28.8 mph N/A   Overcast
5:55 PM 37.2 °F 27.3 °F 30.2 °F 76% 30.30 in 10.0 mi North 18.4 mph 28.8 mph N/A   Overcast
6:15 PM 36.9 °F 25.9 °F 29.7 °F 75% 30.30 in 10.0 mi North 21.9 mph 27.6 mph N/A   Overcast
6:30 PM 37.0 °F 27.0 °F 28.4 °F 71% 30.31 in 10.0 mi North 18.4 mph 27.6 mph N/A   Overcast
6:55 PM 36.7 °F 26.3 °F 29.3 °F 75% 30.31 in 10.0 mi North 19.6 mph 26.5 mph N/A   Overcast
7:15 PM 36.5 °F 25.2 °F 28.9 °F 74% 30.32 in 10.0 mi North 23.0 mph 29.9 mph N/A   Overcast
7:35 PM 36.5 °F 25.2 °F 28.4 °F 72% 30.32 in 10.0 mi North 23.0 mph 29.9 mph N/A   Overcast
7:55 PM 36.5 °F 25.4 °F 28.4 °F 72% 30.34 in 10.0 mi North 21.9 mph 26.5 mph N/A   Overcast
8:35 PM 36.5 °F 26.0 °F 27.5 °F 70% 30.35 in 10.0 mi North 19.6 mph 28.8 mph N/A   Overcast
8:55 PM 36.7 °F 26.3 °F 28.0 °F 71% 30.35 in 10.0 mi NNE 19.6 mph 24.2 mph N/A   Overcast
9:15 PM 36.9 °F 26.8 °F 28.0 °F 70% 30.35 in 10.0 mi North 18.4 mph 24.2 mph N/A   Overcast
9:35 PM 36.5 °F 25.7 °F 27.9 °F 71% 30.36 in 10.0 mi North 20.7 mph 27.6 mph N/A   Overcast
9:55 PM 36.3 °F 27.5 °F 28.0 °F 72% 30.37 in 10.0 mi North 13.8 mph 21.9 mph N/A   Overcast
10:15 PM 35.8 °F 26.9 °F 28.2 °F 74% 30.37 in 10.0 mi North 13.8 mph - N/A   Overcast
10:35 PM 34.2 °F 23.6 °F 28.0 °F 78% 30.37 in 10.0 mi North 17.3 mph 23.0 mph N/A   Mostly Cloudy
10:55 PM 34.0 °F 23.8 °F 27.9 °F 78% 30.37 in 10.0 mi North 16.1 mph 25.3 mph N/A   Scattered Clouds
11:15 PM 33.8 °F 24.3 °F 27.7 °F 78% 30.38 in 10.0 mi North 13.8 mph - N/A   Scattered Clouds
11:35 PM 33.8 °F 23.9 °F 27.3 °F 77% 30.37 in 10.0 mi North 15.0 mph 23.0 mph N/A   Scattered Clouds
11:55 PM 33.4 °F 23.5 °F 26.6 °F 76% 30.37 in 10.0 mi North 15.0 mph 24.2 mph N/A   Clear